Skip Page Navigation
NASA JPL Caltech
NASA Logo - Jet Propulsion Laboratory + View the NASA Portal
+ Center for Near-Earth Object Studies
JPL Home Earth Solar System Stars & Galaxies Technology
JPL Solar System Dynamics
BODIES ORBITS EPHEMERIDES TOOLS PHYSICAL DATA DISCOVERY FAQ SITE MAP
IMPORTANT: The SSD Announcement email list is now available. Major changes are coming in the near future, including possible hostname and/or URL changes. To be notified of such changes, subscribe to this email list.

Please visit this page for more details.


JPL Small-Body Database Browser
Search: [ help ]  
249922 (2001 SG295)
Classification: Main-belt Asteroid          SPK-ID: 2249922
Ephemeris | Orbit Diagram | Orbital Elements | Mission Design | Physical Parameters | Discovery Circumstances | Close-Approach Data ]

[ show orbit diagram ]
Orbital Elements at Epoch 2458600.5 (2019-Apr-27.0) TDB
Reference: JPL 10 (heliocentric ecliptic J2000)
 Element Value Uncertainty (1-sigma)   Units 
e .09939952714839845 5.5927e-08  
a 2.719796645528333 2.2448e-08 au
q 2.449450145023016 1.5388e-07 au
i 5.249856972769051 8.7177e-06 deg
node 179.5870767842584 5.4537e-05 deg
peri 115.0416604077716 7.1163e-05 deg
M 17.77766910891944 4.3513e-05 deg
tp 2458519.594993830687
(2019-Feb-05.09499383)
0.0001982 TDB
period 1638.336389461748
4.49
2.0283e-05
5.553e-08
d
yr
n .219735093669178 2.7204e-09 deg/d
Q 2.99014314603365 2.4679e-08 au
  Orbit Determination Parameters
   # obs. used (total)      181  
   data-arc span      6606 days (18.09 yr)  
   first obs. used      2001-09-20  
   last obs. used      2019-10-22  
   planetary ephem.      DE431  
   SB-pert. ephem.      SB431-N16  
   condition code      0  
   norm. resid. RMS      .58068  
   source      ORB  
   producer      Otto Matic  
   solution date      2019-Nov-08 02:48:47  

Additional Information
 Earth MOID = 1.43868 au 
 Jupiter MOID = 2.17939 au 
 T_jup = 3.346 
[ show covariance matrix ]

Ephemeris | Orbit Diagram | Orbital Elements | Mission Design | Physical Parameters | Discovery Circumstances | Close-Approach Data ]

Physical Parameter Table
Parameter Symbol Value Units Sigma Reference Notes
absolute magnitude H 16.6   n/a MPO454854  

249922 (2001 SG295)          Discovered 2001-Sep-20 by LINEAR at Socorro
Reference: 20100923/Numbers.arcLast Updated: 2010-09-27

[ show close-approach data ]
Ephemeris | Orbit Diagram | Orbital Elements | Mission Design | Physical Parameters | Discovery Circumstances | Close-Approach Data ]
ABOUT SSD CREDITS/AWARDS PRIVACY/COPYRIGHT GLOSSARY LINKS
FirstGov 2019-Dec-09 13:04 UT
(server date/time)  
NASA Home Page
Site Manager:   Ryan S. Park
Webmaster  Alan B. Chamberlin